Location: Unspecified
(0.0000°N, 0.0000°E)
Time: 08:48:15
(UTC+00:00)

NIMBUS 2 DEB - Visible Passes

Search period start: 17 December 2025 00:00
Search period end: 27 December 2025 00:00
Orbit: 960 x 1026 km, 100.4° (Epoch: 14 December)

Date Brightness Start Highest point End Pass type
(mag) Time Alt. Az. Time Alt. Az. Time Alt. Az.
17 Dec ? 03:44:31 10° SSW 03:47:25 25° SSW 03:47:25 25° SSW visible
18 Dec ? 02:30:58 10° SE 02:32:47 20° SE 02:32:47 20° SE visible
18 Dec ? 04:16:04 10° SW 04:17:49 15° SW 04:17:49 15° SW visible
19 Dec ? 03:00:21 10° SSE 03:03:09 29° SSE 03:03:09 29° SSE visible
20 Dec ? 03:30:26 10° S 03:33:31 30° SSW 03:33:31 30° SSW visible
21 Dec ? 02:17:49 10° SE 02:18:51 14° SE 02:18:51 14° SE visible
21 Dec ? 04:01:20 10° SSW 04:03:52 20° SW 04:03:52 20° SW visible
22 Dec ? 02:46:47 10° SSE 02:49:12 25° SE 02:49:12 25° SE visible
23 Dec ? 03:16:29 10° S 03:19:31 31° S 03:19:31 31° S visible
24 Dec ? 03:46:55 10° SSW 03:49:52 25° SSW 03:49:52 25° SSW visible
25 Dec ? 02:33:19 10° SE 02:35:09 20° SE 02:35:09 20° SE visible
25 Dec ? 04:18:23 10° SW 04:20:11 15° SW 04:20:11 15° SW visible
26 Dec ? 03:02:39 10° SSE 03:05:28 29° SSE 03:05:28 29° SSE visible
